Terminal Aerodrome Forecast
Issued by NWS

Home | Current Version | Previous Version | Graphics & Text | Print | Product List | Glossary On
Versions: 1 2 3 4 5 6 7 8 9 10 11 12 13 14 15 16 17 18 19 20
000
FTUS43 KTOP 270700 AAA
TAFFOE
TAF AMD
KFOE 270705Z 2707/2806 36005KT P6SM BKN020
     FM270900 36005KT P6SM SCT020 BKN080
     FM271800 15009KT P6SM SCT080=

USA.gov is the U.S. government's official web portal to all federal, state and local government web resources and services.